OPTUS-X (ADS-01)

Last updated on Sun Apr 12 2026 00:02:57 GMT+0000 (Coordinated Universal Time)

1 62006U 24212A 26101.47629565 -.00000141 00000+0 00000+0 0 9994 2 62006 0.0203 263.0569 0001223 151.2564 113.2453 1.00273736 5096
UTC large
Height (km)
Speed (km/s)
/
Latitude / Longitude
Inclination (degrees)
Orbital Period (minutes)
Azimuth
Elevation
Range (km)
Doppler Factor

Next 0 passes for location: London (51.5072 / 0.1276)

Sorry there are no passes over London.
OPTUS-X (ADS-01)